AALTO-1 (42775 NORAD) Tracking and Keplerian Element Data

This shows tracking and keplerian element data for the satellite.

Feedback or suggestion? Click here.




ElementValue
Catalog42775
NameAALTO-1
Epoch Orbit30067
Epoch Day325.0879299
Epoch Year2022
RAAN357.0466
Inclination97.1812
Eccentricity0.0013323
Argument of Perigee125.3335
Mean Anonmoly234.9152
Mean Motion15.28034223
Decay Rate7.104E-05
L11 42775U 17036L 22325.08792990 .00007104 00000+0 26175-3 0 9995
L22 42775 97.1812 357.0466 0013323 125.3335 234.9152 15.28034223300672



Live tracking and technical data element details for AALTO-1 (NORAD 42775). AALTO-1 can be tracked NOW for your location showing map with azimuth and elevation plus other details from your city location.







IsCatalogInMostPopularTable: catalog: 42775, numindb: 606
Update: records affected: 1



GetName: 42775 AALTO-1

Hit Count: updated at: Fri, 02 Dec 2022 14:12:49 GMT